Weather reports worldwide

Advertisment
Tulloch Bridge, United Kingdom (3047): temperature & dewpoint: 06.11.2019 15:00:00 - 12.11.2019 15:00:00 (GMT)Tulloch Bridge, United Kingdom (3047): temperature -20cm & temperature -100cm: 06.11.2019 15:00:00 - 12.11.2019 15:00:00 (GMT)Tulloch Bridge, United Kingdom (3047): wind speed & gusts: 06.11.2019 15:00:00 - 12.11.2019 15:00:00 (GMT)Tulloch Bridge, United Kingdom (3047): wind direction: 06.11.2019 15:00:00 - 12.11.2019 15:00:00 (GMT)Tulloch Bridge, United Kingdom (3047): reduced air pressure: 06.11.2019 15:00:00 - 12.11.2019 15:00:00 (GMT)Tulloch Bridge, United Kingdom (3047): visibility: 06.11.2019 15:00:00 - 12.11.2019 15:00:00 (GMT)Tulloch Bridge, United Kingdom (3047): precipitation: 06.11.2019 15:00:00 - 12.11.2019 15:00:00 (GMT)
Date & Time tt [°C] td [°C] tt -20cm [°C] tt -100cm [°C] ff [km/h] ff [kn] fx [km/h] fx [kn] dd ppp [hPa] vv [km] rr [mm]
12.11.2019 15:00:00 4,4 2,4 - - 8 4 - - N 999,8 50 0,0
12.11.2019 14:00:00 5,2 2,3 - - 15 8 - - NNW 999,1 50 0,0
12.11.2019 13:00:00 5,1 3,1 - - 11 6 - - NNW 999,0 50 0,0
12.11.2019 12:00:00 5,0 3,2 - - 15 8 - - NNW 998,5 35 0,2
12.11.2019 11:00:00 5,1 3,7 - - 18 10 - - NW 997,7 26 0,2
12.11.2019 10:00:00 5,1 3,6 - - 16 9 - - NW 996,8 8 0,0
12.11.2019 09:00:00 5,0 3,7 5,2 7,2 21 11 - - NNW 995,9 8 0,0
12.11.2019 08:00:00 5,0 3,7 - - 16 9 - - NNW 994,8 35 0,0
12.11.2019 07:00:00 5,1 3,4 - - 16 9 - - N 994,0 13 0,0
12.11.2019 06:00:00 4,6 3,4 - - 13 7 - - NNW 993,1 45 0,4
12.11.2019 05:00:00 3,0 2,5 - - 8 4 - - NW 992,4 11 0,4
12.11.2019 04:00:00 2,6 1,4 - - 8 4 - - W 991,9 8 0,6
12.11.2019 03:00:00 3,3 1,8 - - 18 10 - - NNW 991,2 21 0,2
12.11.2019 02:00:00 3,2 2,2 - - 5 3 - - NW 990,9 50 0,0
12.11.2019 01:00:00 3,5 1,9 - - 11 6 - - W 991,0 50 0,0
12.11.2019 00:00:00 3,1 3,0 - - 8 4 - - NNW 991,2 12 0,2
11.11.2019 23:00:00 2,9 2,8 - - 4 2 - - NE 990,9 20 0,0
11.11.2019 22:00:00 2,8 2,7 - - 4 2 - - ENE 990,7 6 0,2
11.11.2019 21:00:00 2,8 2,3 - - 2 1 - - NE 991,0 17 0,4
11.11.2019 20:00:00 3,2 2,1 - - 15 8 - - WNW 990,9 11 0,6
11.11.2019 19:00:00 3,1 2,1 - - 15 8 - - W 991,0 9 1,6
11.11.2019 18:00:00 3,3 2,8 - - 11 6 - - W 990,9 9 2,6
11.11.2019 17:00:00 3,4 2,9 - - 9 5 - - NW 990,8 8 3,2
11.11.2019 16:00:00 3,8 2,8 - - 11 6 - - W 990,8 11 2,0
11.11.2019 15:00:00 4,1 2,5 - - 11 6 - - WNW 990,6 15 0,8
11.11.2019 14:00:00 4,0 2,4 - - 9 5 - - W 991,0 15 0,2
11.11.2019 13:00:00 3,9 3,1 - - 11 6 - - W 991,2 4,1 0,2
11.11.2019 12:00:00 3,7 2,1 - - 9 5 - - WNW 991,3 7 0,0
11.11.2019 11:00:00 3,1 2,3 - - 8 4 - - W 991,5 4,2 0,0
11.11.2019 10:00:00 3,0 1,2 - - 8 4 - - WNW 991,0 50 0,2
11.11.2019 09:00:00 2,6 1,0 5,0 7,7 4 2 - - ESE 990,0 50 0,0
11.11.2019 08:00:00 3,0 0,8 - - 11 6 - - ENE 989,7 50 0,0
11.11.2019 07:00:00 2,8 0,5 - - 11 6 - - ESE 989,8 50 0,0
11.11.2019 06:00:00 2,7 0,3 - - 18 10 - - ESE 990,5 50 0,0
11.11.2019 05:00:00 3,3 0,5 - - 13 7 - - S 991,4 50 0,0
11.11.2019 04:00:00 3,1 0,1 - - 26 14 - - SE 992,4 16 0,0
11.11.2019 03:00:00 2,2 0,5 - - 21 11 50 27 E 993,4 30 0,0
11.11.2019 02:00:00 2,0 0,3 - - 31 17 48 26 ESE 994,2 8 0,4
11.11.2019 01:00:00 1,8 0,2 - - 8 4 - - SE 996,1 10 0,8
11.11.2019 00:00:00 1,5 0,3 - - 11 6 - - ESE 997,9 7 1,6
10.11.2019 23:00:00 1,6 0,3 - - 13 7 - - ESE 1000,0 7 1,8
10.11.2019 22:00:00 1,6 0,2 - - 9 5 - - SE 1002,2 7 1,4
10.11.2019 21:00:00 1,4 -0,1 - - 11 6 50 27 SE 1004,6 4,4 0,6
10.11.2019 20:00:00 3,4 -1,7 - - 26 14 - - SSE 1006,5 50 0,0
10.11.2019 19:00:00 2,8 -1,4 - - 15 8 - - SE 1008,2 50 0,0
10.11.2019 18:00:00 2,9 -1,4 - - 13 7 - - SE 1010,1 50 0,0
10.11.2019 17:00:00 2,8 -1,7 - - 11 6 - - ESE 1011,3 50 0,0
10.11.2019 16:00:00 3,0 -1,8 - - 16 9 - - ESE 1011,9 50 0,0
10.11.2019 15:00:00 3,7 -2,4 - - 16 9 - - SE 1013,4 50 0,0
10.11.2019 14:00:00 3,9 -2,6 - - 13 7 - - ESE 1014,8 50 0,0
10.11.2019 13:00:00 4,8 -2,7 - - 8 4 - - ESE 1016,0 45 0,0
10.11.2019 12:00:00 3,9 0,5 - - 4 2 - - S 1017,3 30 0,0
10.11.2019 11:00:00 0,4 -1,6 - - 2 1 - - S 1018,7 27 0,0
10.11.2019 10:00:00 0,3 -0,4 - - 4 2 - - ENE 1018,9 22 0,0
10.11.2019 09:00:00 -2,1 -2,2 5,2 7,9 4 2 - - S 1020,2 50 0,0
10.11.2019 08:00:00 -4,6 -5,5 - - 2 1 - - NE 1020,5 50 0,0
10.11.2019 07:00:00 -2,1 -2,2 - - 4 2 - - N 1019,8 14 0,0
10.11.2019 06:00:00 -3,8 -4,1 - - 2 1 - - SW 1019,5 50 0,0
10.11.2019 05:00:00 -5,2 -5,6 - - 2 1 - - ESE 1019,0 50 0,0
10.11.2019 04:00:00 -5,1 -6,2 - - 2 1 - - SSW 1018,6 50 0,0
10.11.2019 03:00:00 -2,6 -2,8 - - 2 1 - - NNW 1017,9 45 0,0
10.11.2019 02:00:00 -3,9 -4,4 - - 2 1 - - N 1017,8 50 0,0
10.11.2019 01:00:00 -3,4 -4,4 - - 0 0 - - N 1017,2 45 0,0
10.11.2019 00:00:00 -0,3 -1,6 - - 2 1 - - S 1016,5 50 0,0
09.11.2019 23:00:00 0,1 -1,4 - - 4 2 - - NE 1015,6 50 0,0
09.11.2019 22:00:00 2,3 -1,0 - - 2 1 - - SSE 1014,4 45 0,0
09.11.2019 21:00:00 2,7 -0,8 - - 5 3 - - ESE 1013,7 50 0,0
09.11.2019 20:00:00 2,4 -0,6 - - 5 3 - - SE 1012,8 50 0,0
09.11.2019 19:00:00 2,3 -0,7 - - 4 2 - - ESE 1012,4 50 0,0
09.11.2019 18:00:00 1,8 -0,9 - - 8 4 - - E 1011,3 50 0,0
09.11.2019 17:00:00 -0,1 -3,1 - - 4 2 - - S 1010,4 50 0,0
09.11.2019 16:00:00 2,8 -2,7 - - 5 3 - - NW 1009,0 50 0,0
09.11.2019 15:00:00 4,0 -1,2 - - 13 7 - - SSE 1008,4 50 0,0
09.11.2019 14:00:00 3,5 -1,6 - - 9 5 - - SE 1008,2 50 0,0
09.11.2019 13:00:00 5,0 -1,9 - - 16 9 - - E 1007,5 26 0,0
09.11.2019 12:00:00 3,8 -2,3 - - 9 5 - - SE 1007,2 50 0,0
09.11.2019 11:00:00 3,6 -1,9 - - 11 6 - - SE 1007,3 45 0,0
09.11.2019 10:00:00 3,2 -2,6 - - 9 5 - - SE 1007,4 50 0,0
09.11.2019 09:00:00 2,9 -2,0 5,7 8,0 13 7 - - SE 1007,3 50 0,0
09.11.2019 08:00:00 2,5 -1,8 - - 15 8 - - SE 1007,5 50 0,0
09.11.2019 07:00:00 2,5 -2,3 - - 15 8 - - SE 1007,8 50 0,0
09.11.2019 06:00:00 2,6 -2,2 - - 18 10 - - ESE 1008,0 50 0,0
09.11.2019 05:00:00 2,0 -1,8 - - 15 8 - - SE 1008,5 50 0,0
09.11.2019 04:00:00 2,3 -1,5 - - 16 9 - - S 1008,9 50 0,0
09.11.2019 03:00:00 3,0 -1,5 - - 16 9 - - SSE 1008,8 30 0,0
09.11.2019 02:00:00 2,2 -1,7 - - 8 4 - - E 1009,8 50 0,0
09.11.2019 01:00:00 0,6 -2,0 - - 8 4 - - ESE 1011,1 45 0,0
09.11.2019 00:00:00 -0,3 -2,0 - - 13 7 - - ENE 1012,5 45 0,0
08.11.2019 23:00:00 -2,1 -2,6 - - 4 2 - - S 1013,6 50 0,0
08.11.2019 22:00:00 -1,7 -2,3 - - 8 4 - - S 1013,9 50 0,0
08.11.2019 21:00:00 -2,3 -2,9 - - 4 2 - - E 1014,5 50 0,0
08.11.2019 20:00:00 -1,2 -1,8 - - 5 3 - - SE 1014,8 50 0,0
08.11.2019 19:00:00 -2,5 -3,1 - - 8 4 - - S 1015,2 50 0,0
08.11.2019 18:00:00 -0,8 -2,3 - - 8 4 - - E 1015,2 50 0,0
08.11.2019 17:00:00 -1,0 -2,6 - - 5 3 - - E 1015,5 45 0,0
08.11.2019 16:00:00 1,1 -1,4 - - 5 3 - - SE 1015,2 50 0,0
08.11.2019 15:00:00 3,1 -0,9 - - 8 4 - - E 1014,8 50 0,0
08.11.2019 14:00:00 4,1 -1,3 - - 5 3 - - E 1014,8 30 0,0
08.11.2019 13:00:00 3,8 -0,9 - - 8 4 - - ENE 1015,2 35 0,0
08.11.2019 12:00:00 2,3 -1,2 - - 4 2 - - ENE 1015,7 21 0,0
08.11.2019 11:00:00 0,6 -1,6 - - 2 1 - - ENE 1016,1 45 0,0
08.11.2019 10:00:00 -0,5 -1,3 - - 4 2 - - SSE 1016,0 50 0,0
08.11.2019 09:00:00 -2,9 -3,3 6,7 8,2 5 3 - - SSW 1015,7 45 0,0
08.11.2019 08:00:00 -3,5 -4,0 - - 4 2 - - WNW 1015,3 50 0,0
08.11.2019 07:00:00 -3,6 -4,2 - - 5 3 - - N 1014,9 50 0,0
08.11.2019 06:00:00 -2,6 -4,0 - - 4 2 - - NNW 1014,5 45 0,0
08.11.2019 05:00:00 -0,1 -2,1 - - 4 2 - - N 1014,3 50 0,0
08.11.2019 04:00:00 0,3 -2,5 - - 11 6 - - N 1013,7 50 0,0
08.11.2019 03:00:00 0,9 -2,0 - - 4 2 - - N 1013,7 50 0,0
08.11.2019 02:00:00 2,0 -1,7 - - 11 6 - - N 1013,1 45 0,0
08.11.2019 01:00:00 0,8 -1,4 - - 8 4 - - NNE 1012,8 50 0,0
08.11.2019 00:00:00 0,0 -1,8 - - 5 3 - - NNW 1012,4 50 0,0
07.11.2019 23:00:00 -1,3 -1,7 - - 2 1 - - NNE 1012,0 24 0,0
07.11.2019 22:00:00 -0,1 -1,1 - - 2 1 - - NNE 1011,6 40 0,0
07.11.2019 21:00:00 2,0 -0,5 - - 5 3 - - S 1010,5 45 0,0
07.11.2019 20:00:00 2,8 -0,1 - - 9 5 - - SE 1009,9 50 0,0
07.11.2019 19:00:00 3,3 0,0 - - 8 4 - - E 1009,0 50 0,0
07.11.2019 18:00:00 3,5 0,4 - - 8 4 - - ENE 1008,1 50 0,0
07.11.2019 17:00:00 3,0 -0,1 - - 4 2 - - NNE 1007,2 40 0,2
07.11.2019 16:00:00 4,6 0,2 - - 11 6 - - E 1006,1 50 0,0
07.11.2019 15:00:00 5,2 1,5 - - 8 4 - - ESE 1005,0 50 0,0
07.11.2019 14:00:00 5,2 1,9 - - 5 3 - - E 1004,3 35 0,0
07.11.2019 13:00:00 4,7 2,6 - - 13 7 - - ENE 1003,5 45 0,0
07.11.2019 12:00:00 4,4 2,8 - - 8 4 - - ESE 1002,9 23 0,0
07.11.2019 11:00:00 4,0 2,4 - - 9 5 - - E 1002,5 40 0,0
07.11.2019 10:00:00 3,5 2,1 - - 9 5 - - SE 1001,7 50 0,0
07.11.2019 09:00:00 3,3 2,0 7,0 8,5 8 4 - - SE 1000,8 50 0,2
07.11.2019 08:00:00 3,1 2,0 - - 8 4 - - E 1000,0 50 0,2
07.11.2019 07:00:00 3,0 1,9 - - 11 6 - - E 999,0 50 0,4
07.11.2019 06:00:00 2,6 1,7 - - 8 4 - - ESE 998,7 11 0,2
07.11.2019 05:00:00 2,7 1,3 - - 9 5 - - E 998,5 45 0,0
07.11.2019 04:00:00 2,4 1,1 - - 4 2 - - E 998,5 50 0,0
07.11.2019 03:00:00 2,6 1,1 - - 9 5 - - E 998,4 45 0,0
07.11.2019 02:00:00 2,3 0,8 - - 2 1 - - SW 998,5 50 0,0
07.11.2019 01:00:00 2,6 0,7 - - 8 4 - - E 998,7 50 0,0
07.11.2019 00:00:00 2,4 0,4 - - 4 2 - - E 998,8 50 0,0
06.11.2019 23:00:00 2,6 0,5 - - 5 3 - - SSE 999,0 50 0,0
06.11.2019 22:00:00 2,2 0,0 - - 5 3 - - SSE 999,3 50 0,0
06.11.2019 21:00:00 3,5 -0,1 - - 8 4 - - SE 999,5 50 0,0
06.11.2019 20:00:00 3,3 0,2 - - 5 3 - - SSE 999,6 50 0,0
06.11.2019 19:00:00 3,9 -0,1 - - 5 3 - - E 999,7 50 0,0
06.11.2019 18:00:00 3,9 0,0 - - 5 3 - - ENE 1000,1 50 0,0
06.11.2019 17:00:00 4,4 -0,1 - - 11 6 - - E 1000,4 50 0,0
06.11.2019 16:00:00 4,4 0,2 - - 8 4 - - ENE 1000,6 50 0,0
06.11.2019 15:00:00 4,7 0,5 - - 9 5 - - ENE 1001,1 45 0,0

tt = temperature
td = dewpoint
tt -20cm = temperature -20cm
tt -100cm = temperature -100cm
ff = wind speed
fx = gusts
dd = wind direction
ppp = reduced air pressure
vv = visibility
rr = precipitation

Next stations